[[{"header":{"parameterUnit":"m.s-1","parameterCategory":1,"la1":30.2991,"la2":30.254,"lo1":-89.0895,"lo2":-89.0444,"dy":0.0017,"dx":0.0017,"nx":28,"ny":28,"refTime":"2024-10-14T03:00:00:Z","depth":0,"parameterNumber":2,"parameterNumberName":"U-component_of_WINDS"},"data":[0,0,0,0,0,0,0,0,0,0,0,0,0,0,0,0,0,0,0,0,0,0,0,0,0,0,0,0,0,0,0,0,0,0,0,0,0,0,0,0,0,0,0,0,0,0,0,0,0,0,0,0,0,0,0,0,0,0,-1.2398,-1.24,0,-1.256,-1.2562,-1.2564,-1.2766,-1.2769,-1.2772,-1.2776,-1.2933,-1.2935,-1.2936,0,0,0,0,0,0,0,0,0,0,0,0,0,-1.2258,-1.2259,-1.2398,-1.24,-1.2402,-1.256,-1.2562,-1.2564,-1.2765,-1.2769,-1.2773,-1.2777,-1.2933,-1.2934,-1.2936,0,0,0,0,0,0,0,0,0,0,0,0,0,-1.2358,-1.226,-1.2398,-1.2522,-1.2535,-1.2559,-1.2562,-1.2565,-1.2765,-1.2769,-1.2774,-1.2779,-1.2933,-1.2934,-1.2936,-1.2849,0,0,-1.2941,-1.2942,0,0,0,0,0,0,0,0,-1.2352,-1.2363,-1.2502,-1.2513,-1.2528,-1.2648,-1.257,-1.266,-1.2763,-1.2677,-1.2776,-1.2781,-1.2834,-1.2844,-1.2864,-1.2857,-1.2863,-1.2942,-1.2943,-1.2943,-1.2944,0,0,0,0,0,0,0,-1.2345,-1.2357,-1.2462,-1.2503,-1.2519,-1.2567,-1.2587,-1.2588,-1.2726,-1.2685,-1.27,-1.2717,-1.2842,-1.2861,-1.2869,-1.2866,-1.2941,-1.2943,-1.2944,-1.2945,-1.2793,-1.2788,0,0,0,0,0,0,-1.2321,-1.235,-1.2457,-1.2467,-1.2451,-1.2566,-1.2588,-1.2604,-1.2727,-1.275,-1.2712,-1.2726,-1.2856,-1.2866,-1.2875,-1.2778,-1.2943,-1.2945,-1.2946,-1.2798,-1.2792,-1.2786,0,0,0,0,0,0,-1.2317,-1.2328,-1.245,-1.2413,-1.2432,-1.2563,-1.258,-1.2605,-1.2624,-1.2748,-1.2772,-1.2707,-1.286,-1.2872,-1.2854,-1.2786,-1.2946,-1.2947,-1.2804,-1.2796,-1.2789,-1.2584,0,0,0,0,0,0,-1.2312,-1.2326,-1.2295,-1.2411,-1.2433,-1.2427,-1.2576,-1.2605,-1.2628,-1.2646,-1.2749,-1.2771,-1.2865,-1.285,-1.2856,-1.2791,-1.2949,-1.2811,-1.2801,-1.2792,-1.2597,-1.257,-1.2547,0,0,0,0,0,-1.2306,-1.223,-1.2293,-1.2304,-1.2399,-1.2423,-1.2436,-1.2548,-1.2622,-1.2591,-1.267,-1.2767,-1.2795,-1.2847,-1.2855,-1.2789,-1.2815,-1.2803,-1.2792,-1.2608,-1.2575,-1.2548,0,0,0,0,0,0,-1.21,-1.2247,-1.2318,-1.2278,-1.2337,-1.2458,-1.2422,-1.251,-1.2548,-1.2563,-1.2699,-1.2721,-1.2684,-1.2737,-1.2792,-1.2711,-1.2819,-1.2809,-1.2676,-1.2646,-1.2622,-1.2606,-1.295,0,0,0,0,0,-1.2051,-1.2061,-1.2189,-1.214,-1.2167,-1.2289,-1.2304,-1.2386,-1.2451,-1.2476,-1.2554,-1.2612,-1.2634,-1.2644,-1.2671,-1.2609,-1.2631,-1.2568,-1.2543,-1.2522,-1.2508,-1.2475,-1.2447,-1.2749,-1.2749,-1.2749,0,0,-1.1947,-1.2029,-1.2026,-1.2101,-1.2156,-1.216,-1.2308,-1.2307,-1.2311,-1.2476,-1.2461,-1.2521,-1.2595,-1.2552,-1.2538,-1.2595,-1.2432,-1.2507,-1.2489,-1.2488,-1.246,-1.2432,-1.2406,-1.2741,-1.2742,-1.2744,0,0,-1.1758,-1.1824,-1.1789,-1.1842,-1.1925,-1.2008,-1.1999,-1.2107,-1.2153,-1.2143,-1.2266,-1.2272,-1.2307,-1.2353,-1.2381,-1.2213,-1.2301,-1.2218,-1.2084,-1.205,-1.2026,-1.2005,-1.1939,-1.1914,-1.2206,-1.2206,-1.2206,0,-1.1617,-1.1631,-1.1759,-1.175,-1.1778,-1.1932,-1.1895,-1.194,-1.2026,-1.204,-1.2105,-1.2151,-1.2212,-1.218,-1.2139,-1.2159,-1.215,-1.2203,-1.202,-1.2,-1.1983,-1.1921,-1.1897,-1.2195,-1.2196,-1.2197,-1.2198,0,-1.1452,-1.1459,-1.1421,-1.1502,-1.1527,-1.1504,-1.1625,-1.1634,-1.1715,-1.1789,-1.1775,-1.1855,-1.1898,-1.1899,-1.1977,-1.1878,-1.191,-1.1995,-1.2105,-1.1941,-1.1884,-1.1863,-1.2179,-1.2183,-1.2186,-1.2189,0,0,-1.1132,-1.1287,-1.1269,-1.1307,-1.1411,-1.1418,-1.1402,-1.1448,-1.145,-1.1506,-1.1491,-1.1519,-1.1599,-1.163,-1.1716,-1.1687,-1.1541,-1.1776,-1.178,-1.1723,-1.143,-1.1359,-1.133,-1.1605,-1.1601,-1.1598,-1.1422,0,-1.0957,-1.0939,-1.1054,-1.1004,-1.101,-1.1158,-1.1143,-1.1204,-1.1274,-1.1288,-1.1366,-1.138,-1.1487,-1.1507,-1.1485,-1.1563,-1.1483,-1.1579,-1.1587,-1.1586,-1.1556,-1.1302,-1.1228,-1.1058,-1.1402,-1.1398,-1.1396,0,-1.075,-1.0795,-1.0745,-1.0851,-1.0858,-1.0842,-1.0892,-1.0906,-1.0977,-1.103,-1.1066,-1.1165,-1.1154,-1.1265,-1.1248,-1.1311,-1.1322,-1.1362,-1.1358,-1.1356,-1.1475,-1.1287,-1.1007,-1.0978,-1.1364,-1.1366,-1.1368,0,-1.0513,-1.0563,-1.0539,-1.0567,-1.0691,-1.0676,-1.0727,-1.0804,-1.0823,-1.0867,-1.088,-1.0922,-1.0942,-1.0971,-1.1078,-1.1149,-1.1046,-1.1167,-1.1085,-1.1081,-1.105,-1.1049,-1.076,-1.107,-1.107,-1.1071,-1.1071,0,-1.0302,-1.0263,-1.0433,-1.0417,-1.0378,-1.0512,-1.0469,-1.0534,-1.0602,-1.0598,-1.0731,-1.0725,-1.087,-1.088,-1.0964,-1.0934,-1.0945,-1.0983,-1.1004,-1.0967,-1.0961,-1.097,-1.0982,-1.1064,-1.1066,-1.1067,-1.1068,0,-1.0027,-1.0141,-1.0122,-1.0243,-1.0272,-1.0237,-1.0339,-1.0327,-1.0408,-1.0402,-1.0409,-1.0533,-1.0551,-1.0663,-1.0707,-1.0763,-1.07,-1.0749,-1.0675,-1.0688,-1.0597,-1.0601,-1.0297,-1.0261,-1.06,-1.0597,-1.0594,0,-0.9881,-0.9855,-0.9973,-0.9982,-1.0027,-1.0039,-1.006,-1.0192,-1.0208,-1.0287,-1.0265,-1.0295,-1.0324,-1.0346,-1.0438,-1.0471,-1.0517,-1.0409,-1.0522,-1.0484,-1.0506,-1.0503,-1.0499,-1.0381,-1.0377,-1.0373,-1.037,0,-0.9607,-0.9664,-0.9691,-0.9736,-0.9758,-0.9799,-0.9849,-0.9848,-0.9993,-1.0004,-1.0025,-1.0048,-1.0094,-1.0118,-1.0168,-1.0219,-1.0315,-1.0336,-1.0317,-1.0273,-1.0229,-1.0245,-1.06,-1.0339,-1.0343,-1.0345,-1.0346,-1.0348,-0.9388,-0.937,-0.945,-0.9474,-0.9526,-0.9569,-0.9563,-0.9644,-0.9665,-0.9712,-0.979,-0.9798,-0.987,-0.9947,-0.9989,-0.9996,-1.0053,-1.0028,-1.002,-1.0009,-0.9987,-1.0235,-1.0006,-1.0007,-1.0008,-1.0009,-1.001,0,-0.9114,-0.9174,-0.9195,-0.9261,-0.9279,-0.9376,-0.9436,-0.9443,-0.9449,-0.951,-0.9537,-0.9559,-0.9585,-0.9681,-0.9716,-0.9702,-0.9747,-0.9706,-0.9704,-0.9713,-0.9937,-0.9946,-0.9669,-0.9669,-0.9669,-0.9669,-0.9669,-0.9669,-0.8973,-0.8948,-0.9015,-0.9015,-0.9075,-0.9086,-0.9111,-0.915,-0.9198,-0.9218,-0.924,-0.9305,-0.9378,-0.9419,-0.9446,-0.9474,-0.9477,-0.9419,-0.9459,-0.9665,-0.9698,-0.9729,-0.9738,-0.942,-0.942,-0.9234,-0.9232,-0.9231]},{"header":{"parameterUnit":"m.s-1","parameterCategory":1,"la1":30.2991,"la2":30.254,"lo1":-89.0895,"lo2":-89.0444,"dy":0.0017,"dx":0.0017,"nx":28,"ny":28,"refTime":"2024-10-14T03:00:00:Z","depth":0,"parameterNumber":3,"parameterNumberName":"V-component_of_WINDS"},"data":[0,0,0,0,0,0,0,0,0,0,0,0,0,0,0,0,0,0,0,0,0,0,0,0,0,0,0,0,0,0,0,0,0,0,0,0,0,0,0,0,0,0,0,0,0,0,0,0,0,0,0,0,0,0,0,0,0,0,-2.1818,-2.1819,0,-2.1887,-2.1888,-2.1889,-2.193,-2.1931,-2.1931,-2.1931,-2.1995,-2.1997,-2.1998,0,0,0,0,0,0,0,0,0,0,0,0,0,-2.1716,-2.1717,-2.1818,-2.1819,-2.182,-2.1887,-2.1888,-2.1889,-2.193,-2.1931,-2.1931,-2.1931,-2.1995,-2.1996,-2.1998,0,0,0,0,0,0,0,0,0,0,0,0,0,-2.177,-2.1718,-2.1818,-2.1849,-2.1852,-2.1887,-2.1888,-2.1889,-2.193,-2.1931,-2.1931,-2.1931,-2.1994,-2.1996,-2.1998,-2.2006,0,0,-2.2005,-2.2006,0,0,0,0,0,0,0,0,-2.1767,-2.1773,-2.1843,-2.1847,-2.1851,-2.1901,-2.1875,-2.1928,-2.193,-2.19,-2.1931,-2.1932,-2.1963,-2.1968,-2.198,-2.2009,-2.2011,-2.2006,-2.2007,-2.2008,-2.2008,0,0,0,0,0,0,0,-2.1763,-2.1771,-2.1845,-2.1844,-2.1849,-2.1857,-2.1865,-2.1886,-2.1929,-2.1903,-2.1906,-2.1914,-2.1965,-2.1978,-2.1982,-2.2012,-2.2005,-2.2007,-2.2009,-2.201,-2.2049,-2.2049,0,0,0,0,0,0,-2.1755,-2.1767,-2.1843,-2.1847,-2.1809,-2.1859,-2.1868,-2.1884,-2.1929,-2.1936,-2.1914,-2.1916,-2.1974,-2.1979,-2.1984,-2.1995,-2.2008,-2.201,-2.2011,-2.205,-2.2049,-2.2049,0,0,0,0,0,0,-2.1753,-2.1762,-2.184,-2.1808,-2.1819,-2.186,-2.1878,-2.1885,-2.1898,-2.1937,-2.1944,-2.1919,-2.1974,-2.1981,-2.2,-2.1998,-2.2011,-2.2013,-2.205,-2.205,-2.2049,-2.2017,0,0,0,0,0,0,-2.175,-2.176,-2.1765,-2.1808,-2.1821,-2.1857,-2.1878,-2.1886,-2.1903,-2.1906,-2.1944,-2.195,-2.1975,-2.1997,-2.2002,-2.2001,-2.2015,-2.205,-2.205,-2.2049,-2.2018,-2.2015,-2.2013,0,0,0,0,0,-2.1746,-2.1752,-2.1765,-2.1774,-2.1828,-2.1857,-2.1864,-2.1894,-2.1902,-2.1906,-2.1931,-2.1949,-2.1997,-2.1998,-2.2005,-2.2004,-2.2051,-2.205,-2.2049,-2.2019,-2.2016,-2.2013,0,0,0,0,0,0,-2.1705,-2.1758,-2.1773,-2.1794,-2.1821,-2.1864,-2.187,-2.1889,-2.1912,-2.1914,-2.1948,-2.1956,-2.1972,-2.199,-2.199,-2.2013,-2.2026,-2.2027,-2.2001,-2.1998,-2.1995,-2.199,-2.2017,0,0,0,0,0,-2.1699,-2.172,-2.1765,-2.1778,-2.1791,-2.1828,-2.1842,-2.1863,-2.1891,-2.1902,-2.1929,-2.1954,-2.1974,-2.1987,-2.2008,-2.2021,-2.2029,-2.2024,-2.2021,-2.2019,-2.2019,-2.2026,-2.2024,-2.2047,-2.2047,-2.2047,0,0,-2.1685,-2.1717,-2.1728,-2.1771,-2.1794,-2.1814,-2.1837,-2.1857,-2.1871,-2.1904,-2.1925,-2.1945,-2.1975,-2.1991,-2.1999,-2.2007,-2.2014,-2.2018,-2.2016,-2.2017,-2.2025,-2.2023,-2.2021,-2.2047,-2.2047,-2.2047,0,0,-2.167,-2.1697,-2.1711,-2.1735,-2.1771,-2.1795,-2.1798,-2.1839,-2.1855,-2.1876,-2.1902,-2.1918,-2.1953,-2.1973,-2.1988,-2.1982,-2.1998,-2.1987,-2.1972,-2.1979,-2.1977,-2.1976,-2.1972,-2.1971,-2.1987,-2.1987,-2.1987,0,-2.1647,-2.168,-2.1715,-2.1734,-2.1751,-2.1785,-2.1798,-2.1819,-2.1859,-2.1869,-2.1877,-2.1922,-2.1945,-2.1966,-2.1964,-2.1976,-2.1979,-2.1983,-2.1975,-2.1974,-2.1973,-2.197,-2.1969,-2.1985,-2.1986,-2.1986,-2.1986,0,-2.1651,-2.1673,-2.168,-2.172,-2.1739,-2.1754,-2.1789,-2.1803,-2.1823,-2.1846,-2.1866,-2.1895,-2.1923,-2.1929,-2.1947,-2.1953,-2.1956,-2.1969,-2.1983,-2.1969,-2.1966,-2.1966,-2.1983,-2.1984,-2.1984,-2.1985,0,0,-2.161,-2.1671,-2.1673,-2.1692,-2.1734,-2.1751,-2.1768,-2.1797,-2.1808,-2.1834,-2.1848,-2.1877,-2.189,-2.1907,-2.1927,-2.1934,-2.1925,-2.1946,-2.1947,-2.194,-2.1931,-2.192,-2.1919,-2.1937,-2.1937,-2.1937,-2.1928,0,-2.1601,-2.1636,-2.1667,-2.1689,-2.1709,-2.1742,-2.1756,-2.1782,-2.1804,-2.1823,-2.1846,-2.1867,-2.1883,-2.1893,-2.1901,-2.1925,-2.1924,-2.1926,-2.1948,-2.1949,-2.1939,-2.1918,-2.1906,-2.1896,-2.1928,-2.1928,-2.1928,0,-2.1594,-2.1622,-2.1646,-2.1687,-2.1697,-2.1709,-2.1739,-2.1757,-2.1787,-2.1802,-2.1822,-2.1844,-2.1861,-2.1873,-2.1896,-2.1897,-2.1908,-2.1921,-2.1922,-2.1924,-2.1936,-2.1918,-2.1894,-2.1892,-2.1927,-2.1927,-2.1927,0,-2.1561,-2.1604,-2.1625,-2.164,-2.1688,-2.1696,-2.1716,-2.1747,-2.1762,-2.1787,-2.1797,-2.1823,-2.1836,-2.1855,-2.1882,-2.1889,-2.1902,-2.1917,-2.1913,-2.1913,-2.1914,-2.1913,-2.189,-2.1923,-2.1923,-2.1923,-2.1923,0,-2.1547,-2.156,-2.1611,-2.1623,-2.1638,-2.1674,-2.1688,-2.171,-2.1737,-2.1753,-2.1782,-2.1795,-2.1832,-2.1849,-2.1871,-2.1886,-2.1892,-2.1904,-2.1909,-2.19,-2.1899,-2.1907,-2.1908,-2.1922,-2.1922,-2.1922,-2.1922,0,-2.1512,-2.1547,-2.1571,-2.1615,-2.1627,-2.1636,-2.1673,-2.1685,-2.1709,-2.1729,-2.1735,-2.1772,-2.1794,-2.1825,-2.1855,-2.1869,-2.1881,-2.189,-2.1871,-2.1874,-2.1869,-2.1869,-2.1849,-2.1848,-2.1883,-2.1882,-2.1882,0,-2.15,-2.1511,-2.1558,-2.1571,-2.1591,-2.1613,-2.163,-2.1665,-2.1681,-2.1716,-2.1723,-2.1748,-2.177,-2.1803,-2.1831,-2.1854,-2.1863,-2.1855,-2.1867,-2.1858,-2.1862,-2.186,-2.1861,-2.1852,-2.1851,-2.1851,-2.185,0,-2.1474,-2.1491,-2.1515,-2.1545,-2.1565,-2.159,-2.1615,-2.1624,-2.1665,-2.1681,-2.1705,-2.1722,-2.1754,-2.1777,-2.1805,-2.1823,-2.1842,-2.1847,-2.1847,-2.1838,-2.1826,-2.1831,-2.1862,-2.1847,-2.1847,-2.1847,-2.1847,-2.1848,-2.1449,-2.146,-2.1495,-2.1521,-2.1545,-2.1569,-2.1582,-2.1609,-2.1631,-2.1662,-2.1681,-2.1704,-2.1733,-2.1772,-2.1789,-2.1806,-2.1814,-2.1815,-2.1815,-2.1814,-2.181,-2.1825,-2.1811,-2.1811,-2.1812,-2.1812,-2.1812,0,-2.1423,-2.1448,-2.1472,-2.1508,-2.1528,-2.1548,-2.1578,-2.1592,-2.1613,-2.164,-2.1661,-2.1688,-2.1711,-2.1742,-2.1767,-2.1774,-2.1784,-2.1779,-2.1778,-2.1782,-2.1802,-2.1799,-2.1771,-2.1771,-2.1771,-2.1771,-2.1771,-2.1771,-2.1412,-2.1433,-2.1454,-2.1486,-2.151,-2.1535,-2.155,-2.1571,-2.1593,-2.1623,-2.1643,-2.1664,-2.1692,-2.1719,-2.174,-2.1749,-2.1756,-2.1748,-2.1759,-2.1777,-2.1781,-2.1784,-2.1781,-2.175,-2.175,-2.1737,-2.1737,-2.1737]}]]